DUBAISAT-1

Last updated on Thu Jul 03 2025 00:02:29 GMT+0000 (Coordinated Universal Time)

1 35682U 09041B 25183.63161314 .00000842 00000+0 13545-3 0 9996 2 35682 97.9582 317.0244 0012020 111.1370 249.1124 14.74016295853587
UTC large
Height (km)
Speed (km/s)
/
Latitude / Longitude
Inclination (degrees)
Orbital Period (minutes)
Azimuth
Elevation
Range (km)
Doppler Factor

Next 0 passes for location: London (51.5072 / 0.1276)

Sorry there are no passes over London.